CXA021 CYYZ-MROC

Flight info

Callsign CXA021
Flight time 4h 34m
Altitude 34000
Route BETES3 ERI DCT EWC DCT CKB DCT COBBE DCT DANCO DCT SLOJO Q103 GRONK DCT WURFL Q83 JEVED Q97 PRMUS DCT DEBRL/N0448F350 Q93 EBAYY/N0454F340 Q93 MCLAW Y442 FUNDI/N0451F350 UM335 ALVEK UM328 SELEK UZ403 PIRAS BARRA4P
Aircraft A306/H-SDE3FGHIRWY/LB1

Departure

Time 2026-05-05 16:53
Airport Toronto Pearson International Airport (CYYZ)

Arrival

Time 2026-05-05 21:28
Airport Juan Santamaría International Airport (MROC)
Time Latitude Longitude Altitude Speed Heading
2026-05-05 16:09 43.68183 -79.61982 568 ft 0 kts 343°
2026-05-05 16:43 43.68164 -79.61974 572 ft 4 kts 346°
2026-05-05 16:43 43.68138 -79.61964 572 ft 4 kts 338°
2026-05-05 16:44 43.68117 -79.61951 572 ft 4 kts 322°
2026-05-05 16:44 43.68102 -79.61928 575 ft 4 kts 274°
2026-05-05 16:44 43.68108 -79.61896 575 ft 4 kts 234°
2026-05-05 16:44 43.68120 -79.61875 576 ft 0 kts 226°
2026-05-05 16:47 43.68108 -79.61893 574 ft 6 kts 226°
2026-05-05 16:47 43.68064 -79.61955 571 ft 9 kts 225°
2026-05-05 16:47 43.68005 -79.61996 570 ft 11 kts 200°
2026-05-05 16:47 43.67973 -79.62083 572 ft 11 kts 287°
2026-05-05 16:48 43.68024 -79.62164 571 ft 12 kts 314°
2026-05-05 16:48 43.68091 -79.62251 573 ft 14 kts 320°
2026-05-05 16:48 43.68166 -79.62348 572 ft 16 kts 316°
2026-05-05 16:48 43.68253 -79.62458 572 ft 18 kts 319°
2026-05-05 16:49 43.68349 -79.62578 575 ft 20 kts 316°
2026-05-05 16:49 43.68454 -79.62723 574 ft 24 kts 314°
2026-05-05 16:49 43.68589 -79.62896 570 ft 29 kts 317°
2026-05-05 16:49 43.68751 -79.63101 571 ft 33 kts 317°
2026-05-05 16:50 43.68928 -79.63333 573 ft 36 kts 317°
2026-05-05 16:50 43.69045 -79.63487 571 ft 18 kts 316°
2026-05-05 16:50 43.69133 -79.63505 571 ft 12 kts 38°
2026-05-05 16:50 43.69203 -79.63440 575 ft 15 kts 22°
2026-05-05 16:51 43.69329 -79.63398 569 ft 21 kts 24°
2026-05-05 16:51 43.69441 -79.63320 574 ft 0 kts 11°
2026-05-05 16:51 43.69447 -79.63319 573 ft 4 kts
2026-05-05 16:52 43.69486 -79.63346 573 ft 6 kts 303°
2026-05-05 16:52 43.69483 -79.63397 574 ft 6 kts 248°
2026-05-05 16:52 43.69449 -79.63454 573 ft 8 kts 227°
2026-05-05 16:52 43.69297 -79.63677 575 ft 63 kts 226°
2026-05-05 16:53 43.68849 -79.64323 573 ft 121 kts 227°
2026-05-05 16:53 43.68140 -79.65345 582 ft 174 kts 223°
2026-05-05 16:53 43.67171 -79.66412 1382 ft 168 kts 222°
2026-05-05 16:53 43.66440 -79.67574 2468 ft 164 kts 233°
2026-05-05 16:54 43.65751 -79.69064 2759 ft 201 kts 238°
2026-05-05 16:54 43.64989 -79.70804 3239 ft 222 kts 237°
2026-05-05 16:54 43.64135 -79.72637 3980 ft 231 kts 237°
2026-05-05 16:54 43.63164 -79.74410 4897 ft 233 kts 228°
2026-05-05 16:55 43.61872 -79.75809 5735 ft 242 kts 211°
2026-05-05 16:55 43.60230 -79.76468 6498 ft 256 kts 188°
2026-05-05 16:55 43.58419 -79.76064 7211 ft 272 kts 169°
2026-05-05 16:55 43.56610 -79.75195 7977 ft 278 kts 166°
2026-05-05 16:56 43.54774 -79.74259 8711 ft 285 kts 166°
2026-05-05 16:56 43.52892 -79.73308 9443 ft 291 kts 166°
2026-05-05 16:56 43.50979 -79.72351 10125 ft 296 kts 166°
2026-05-05 16:56 43.48990 -79.71368 10504 ft 313 kts 166°
2026-05-05 16:57 43.46880 -79.70331 10775 ft 330 kts 165°
2026-05-05 16:57 43.44691 -79.69254 11043 ft 347 kts 165°
2026-05-05 16:57 43.42324 -79.68434 11299 ft 356 kts 179°
2026-05-05 16:57 43.39860 -79.68748 11556 ft 359 kts 200°
2026-05-05 16:58 43.37494 -79.69912 12032 ft 363 kts 206°
2026-05-05 16:58 43.35133 -79.71213 12588 ft 369 kts 206°
2026-05-05 16:58 43.32738 -79.72528 13150 ft 373 kts 206°
2026-05-05 16:58 43.30349 -79.73828 13700 ft 377 kts 206°
2026-05-05 16:59 43.27897 -79.75153 14227 ft 381 kts 205°
2026-05-05 16:59 43.25396 -79.76410 14769 ft 386 kts 201°
2026-05-05 16:59 43.22785 -79.77386 15305 ft 391 kts 198°
2026-05-05 16:59 43.20130 -79.78286 15832 ft 395 kts 198°
2026-05-05 17:00 43.17452 -79.79186 16360 ft 399 kts 198°
2026-05-05 17:00 43.14744 -79.80097 16891 ft 402 kts 198°
2026-05-05 17:00 43.12014 -79.81018 17431 ft 406 kts 198°
2026-05-05 17:00 43.09260 -79.81948 17909 ft 410 kts 198°
2026-05-05 17:01 43.06481 -79.82887 18364 ft 413 kts 198°
2026-05-05 17:01 43.03683 -79.83830 18807 ft 416 kts 198°
2026-05-05 17:01 43.00861 -79.84782 19237 ft 419 kts 198°
2026-05-05 17:01 42.98028 -79.85737 19684 ft 421 kts 199°
2026-05-05 17:02 42.95177 -79.86697 20091 ft 424 kts 199°
2026-05-05 17:02 42.92302 -79.87664 20522 ft 426 kts 199°
2026-05-05 17:02 42.89416 -79.88634 20941 ft 429 kts 199°
2026-05-05 17:02 42.86504 -79.89612 21374 ft 431 kts 199°
2026-05-05 17:03 42.83594 -79.90630 21794 ft 432 kts 201°
2026-05-05 17:03 42.80737 -79.91894 22190 ft 433 kts 204°
2026-05-05 17:03 42.77888 -79.93254 22583 ft 435 kts 205°
2026-05-05 17:03 42.75032 -79.94629 22978 ft 437 kts 205°
2026-05-05 17:04 42.72156 -79.96011 23345 ft 439 kts 205°
2026-05-05 17:04 42.69264 -79.97396 23661 ft 442 kts 205°
2026-05-05 17:04 42.66359 -79.98784 23953 ft 444 kts 205°
2026-05-05 17:04 42.63435 -80.00179 24260 ft 446 kts 205°
2026-05-05 17:05 42.60502 -80.01576 24560 ft 448 kts 205°
2026-05-05 17:05 42.57558 -80.02977 24849 ft 450 kts 205°
2026-05-05 17:05 42.54599 -80.04383 25128 ft 452 kts 205°
2026-05-05 17:05 42.51624 -80.05795 25417 ft 453 kts 205°
2026-05-05 17:06 42.48645 -80.07208 25691 ft 455 kts 205°
2026-05-05 17:06 42.45685 -80.08611 25954 ft 457 kts 205°
2026-05-05 17:06 42.42677 -80.10035 26213 ft 459 kts 205°
2026-05-05 17:06 42.39662 -80.11460 26493 ft 460 kts 205°
2026-05-05 17:07 42.36631 -80.12892 26759 ft 462 kts 205°
2026-05-05 17:07 42.33588 -80.14328 27003 ft 464 kts 205°
2026-05-05 17:07 42.30538 -80.15765 27236 ft 466 kts 205°
2026-05-05 17:07 42.27477 -80.17206 27494 ft 467 kts 205°
2026-05-05 17:08 42.24403 -80.18653 27763 ft 468 kts 204°
2026-05-05 17:08 42.21337 -80.20092 28116 ft 467 kts 205°
2026-05-05 17:08 42.18277 -80.21528 28457 ft 466 kts 205°
2026-05-05 17:08 42.15219 -80.22961 28839 ft 464 kts 205°
2026-05-05 17:09 42.12168 -80.24390 29191 ft 463 kts 205°
2026-05-05 17:09 42.09123 -80.25815 29514 ft 463 kts 205°
2026-05-05 17:09 42.06092 -80.27232 29852 ft 462 kts 204°
2026-05-05 17:09 42.02997 -80.28435 30150 ft 466 kts 198°
2026-05-05 17:10 41.99756 -80.29023 30389 ft 474 kts 188°
2026-05-05 17:10 41.96439 -80.29022 30632 ft 477 kts 184°
2026-05-05 17:10 41.93125 -80.28844 30863 ft 478 kts 182°
2026-05-05 17:10 41.89800 -80.28589 31119 ft 478 kts 181°
2026-05-05 17:11 41.86470 -80.28311 31358 ft 478 kts 181°
2026-05-05 17:11 41.83151 -80.28037 31609 ft 479 kts 181°
2026-05-05 17:11 41.79822 -80.27776 31850 ft 479 kts 182°
2026-05-05 17:11 41.76504 -80.27531 32109 ft 478 kts 182°
2026-05-05 17:12 41.73181 -80.27294 32359 ft 478 kts 182°
2026-05-05 17:12 41.69860 -80.27065 32590 ft 478 kts 182°
2026-05-05 17:12 41.66533 -80.26839 32809 ft 479 kts 182°
2026-05-05 17:12 41.63208 -80.26612 33050 ft 478 kts 182°
2026-05-05 17:13 41.61004 -80.26462 33196 ft 478 kts 182°
2026-05-05 17:13 41.57681 -80.26236 33423 ft 478 kts 182°
2026-05-05 17:13 41.54312 -80.26007 33640 ft 478 kts 182°
2026-05-05 17:13 41.51040 -80.25784 33801 ft 479 kts 182°
2026-05-05 17:14 41.44405 -80.25330 33824 ft 475 kts 182°
2026-05-05 17:14 41.37804 -80.24882 33827 ft 475 kts 182°
2026-05-05 17:15 41.31209 -80.24436 33836 ft 474 kts 182°
2026-05-05 17:15 41.24615 -80.23989 33843 ft 474 kts 182°
2026-05-05 17:16 41.18023 -80.23543 33843 ft 474 kts 182°
2026-05-05 17:16 41.11433 -80.23098 33842 ft 474 kts 182°
2026-05-05 17:17 41.04847 -80.22655 33842 ft 474 kts 182°
2026-05-05 17:17 40.98258 -80.22212 33846 ft 474 kts 182°
2026-05-05 17:18 40.91681 -80.21770 33847 ft 474 kts 182°
2026-05-05 17:18 40.85094 -80.21329 33850 ft 474 kts 182°
2026-05-05 17:19 40.78525 -80.21141 33853 ft 470 kts 187°
2026-05-05 17:19 40.72005 -80.21416 33851 ft 469 kts 188°
2026-05-05 17:20 40.65483 -80.21743 33844 ft 469 kts 188°
2026-05-05 17:20 40.58964 -80.22018 33846 ft 469 kts 188°
2026-05-05 17:21 40.52449 -80.22259 33849 ft 469 kts 187°
2026-05-05 17:21 40.49183 -80.22372 33563 ft 468 kts 192°
2026-05-05 17:22 40.42750 -80.22592 33844 ft 460 kts 192°
2026-05-05 17:22 40.36340 -80.22827 33855 ft 462 kts 192°
2026-05-05 17:23 40.29907 -80.23066 33884 ft 462 kts 192°
2026-05-05 17:23 40.23467 -80.23301 33896 ft 463 kts 192°
2026-05-05 17:24 40.17026 -80.23534 33898 ft 464 kts 192°
2026-05-05 17:24 40.10609 -80.23765 33895 ft 465 kts 192°
2026-05-05 17:25 40.04130 -80.23996 33894 ft 466 kts 192°
2026-05-05 17:25 39.97644 -80.24228 33888 ft 467 kts 192°
2026-05-05 17:26 39.91152 -80.24461 33884 ft 467 kts 192°
2026-05-05 17:26 39.84653 -80.24690 33876 ft 467 kts 192°
2026-05-05 17:27 39.78148 -80.24919 33882 ft 468 kts 192°
2026-05-05 17:27 39.71635 -80.25151 33885 ft 469 kts 192°
2026-05-05 17:28 39.65120 -80.25382 33886 ft 469 kts 192°
2026-05-05 17:28 39.58592 -80.25615 33885 ft 469 kts 192°
2026-05-05 17:29 39.52052 -80.25846 33902 ft 471 kts 192°
2026-05-05 17:29 39.45496 -80.26078 33911 ft 471 kts 192°
2026-05-05 17:30 39.38938 -80.26310 33921 ft 472 kts 192°
2026-05-05 17:30 39.32369 -80.26542 33927 ft 473 kts 192°
2026-05-05 17:31 39.25817 -80.26910 33927 ft 465 kts 198°
2026-05-05 17:31 39.19535 -80.28453 33919 ft 457 kts 203°
2026-05-05 17:32 39.13339 -80.30276 33913 ft 456 kts 204°
2026-05-05 17:32 39.07162 -80.32142 33911 ft 456 kts 204°
2026-05-05 17:33 39.00972 -80.33989 33913 ft 457 kts 204°
2026-05-05 17:33 38.94819 -80.35806 33906 ft 457 kts 204°
2026-05-05 17:34 38.88623 -80.37629 33913 ft 457 kts 204°
2026-05-05 17:34 38.82420 -80.39448 33919 ft 458 kts 204°
2026-05-05 17:35 38.76199 -80.41267 33922 ft 458 kts 204°
2026-05-05 17:35 38.69991 -80.43085 33931 ft 458 kts 204°
2026-05-05 17:36 38.63765 -80.44903 33936 ft 460 kts 204°
2026-05-05 17:36 38.57527 -80.46723 33944 ft 459 kts 204°
2026-05-05 17:37 38.51296 -80.48538 33941 ft 460 kts 204°
2026-05-05 17:37 38.45054 -80.50350 33951 ft 461 kts 204°
2026-05-05 17:38 38.38793 -80.52164 33952 ft 461 kts 204°
2026-05-05 17:38 38.32392 -80.53523 33966 ft 470 kts 198°
2026-05-05 17:39 38.25872 -80.54513 33969 ft 473 kts 197°
2026-05-05 17:39 38.19333 -80.55443 33974 ft 473 kts 197°
2026-05-05 17:40 38.12785 -80.56376 33983 ft 474 kts 197°
2026-05-05 17:40 38.06220 -80.57321 34009 ft 476 kts 197°
2026-05-05 17:41 37.99650 -80.58279 34015 ft 475 kts 197°
2026-05-05 17:41 37.93062 -80.59236 34026 ft 477 kts 197°
2026-05-05 17:42 37.86466 -80.60187 34027 ft 477 kts 197°
2026-05-05 17:42 37.79862 -80.61139 34025 ft 478 kts 197°
2026-05-05 17:43 37.73253 -80.62093 34018 ft 478 kts 197°
2026-05-05 17:43 37.66636 -80.63047 34005 ft 479 kts 197°
2026-05-05 17:44 37.60001 -80.63999 33994 ft 480 kts 197°
2026-05-05 17:44 37.53357 -80.64949 33989 ft 481 kts 197°
2026-05-05 17:45 37.46690 -80.65902 33992 ft 483 kts 197°
2026-05-05 17:45 37.40017 -80.66856 34002 ft 483 kts 197°
2026-05-05 17:46 37.33319 -80.67809 34013 ft 484 kts 197°
2026-05-05 17:46 37.26622 -80.68763 34022 ft 485 kts 197°
2026-05-05 17:47 37.19919 -80.69714 34039 ft 485 kts 197°
2026-05-05 17:47 37.13203 -80.70665 34035 ft 486 kts 197°
2026-05-05 17:48 37.06388 -80.71208 34034 ft 496 kts 190°
2026-05-05 17:48 36.99457 -80.71130 34028 ft 500 kts 188°
2026-05-05 17:49 36.92488 -80.70944 34041 ft 501 kts 188°
2026-05-05 17:49 36.85512 -80.70757 34050 ft 502 kts 188°
2026-05-05 17:50 36.78532 -80.70581 34059 ft 502 kts 188°
2026-05-05 17:50 36.71534 -80.70417 34053 ft 503 kts 188°
2026-05-05 17:51 36.64538 -80.70256 34043 ft 503 kts 188°
2026-05-05 17:51 36.57533 -80.70093 34055 ft 504 kts 188°
2026-05-05 17:52 36.50510 -80.69929 34065 ft 505 kts 188°
2026-05-05 17:52 36.43489 -80.69766 34061 ft 504 kts 188°
2026-05-05 17:53 36.36478 -80.69602 34066 ft 503 kts 188°
2026-05-05 17:53 36.29482 -80.69442 34047 ft 504 kts 188°
2026-05-05 17:54 36.22462 -80.69279 34030 ft 504 kts 187°
2026-05-05 17:54 36.15438 -80.69117 34014 ft 505 kts 187°
2026-05-05 17:55 36.08412 -80.68955 34006 ft 505 kts 187°
2026-05-05 17:55 36.01373 -80.68794 34014 ft 506 kts 187°
2026-05-05 17:56 35.94316 -80.68633 34028 ft 507 kts 187°
2026-05-05 17:56 35.87330 -80.68474 34041 ft 509 kts 187°
2026-05-05 17:57 35.80251 -80.68312 34050 ft 509 kts 187°
2026-05-05 17:57 35.74293 -80.68177 34060 ft 510 kts 187°
2026-05-05 17:58 35.67229 -80.68017 34069 ft 511 kts 187°
2026-05-05 17:58 35.60117 -80.67855 34074 ft 512 kts 187°
2026-05-05 17:59 35.52989 -80.67694 34096 ft 513 kts 187°
2026-05-05 17:59 35.45843 -80.67533 34107 ft 514 kts 187°
2026-05-05 18:00 35.38644 -80.67370 34110 ft 515 kts 187°
2026-05-05 18:00 35.31460 -80.67208 34110 ft 516 kts 187°
2026-05-05 18:01 35.24267 -80.67045 34099 ft 517 kts 187°
2026-05-05 18:01 35.17063 -80.66882 34081 ft 518 kts 187°
2026-05-05 18:02 35.09861 -80.66721 34084 ft 518 kts 187°
2026-05-05 18:02 35.02649 -80.66560 34082 ft 519 kts 187°
2026-05-05 18:03 34.95426 -80.66399 34077 ft 518 kts 187°
2026-05-05 18:03 34.88216 -80.66238 34078 ft 518 kts 187°
2026-05-05 18:04 34.81000 -80.66078 34082 ft 519 kts 186°
2026-05-05 18:04 34.73771 -80.65918 34088 ft 519 kts 186°
2026-05-05 18:05 34.66571 -80.65854 34077 ft 513 kts 192°
2026-05-05 18:05 34.63084 -80.66468 34080 ft 500 kts 202°
2026-05-05 18:05 34.59728 -80.67511 34078 ft 496 kts 205°
2026-05-05 18:06 34.53127 -80.69887 34086 ft 494 kts 207°
2026-05-05 18:06 34.46574 -80.72380 34093 ft 494 kts 207°
2026-05-05 18:07 34.40027 -80.74850 34085 ft 493 kts 207°
2026-05-05 18:07 34.33512 -80.77267 34080 ft 485 kts 206°
2026-05-05 18:08 34.27072 -80.79645 34092 ft 483 kts 207°
2026-05-05 18:08 34.20608 -80.82034 34088 ft 482 kts 207°
2026-05-05 18:09 34.14234 -80.84390 34081 ft 482 kts 207°
2026-05-05 18:09 34.07818 -80.86754 34086 ft 482 kts 207°
2026-05-05 18:10 34.01360 -80.89128 34089 ft 482 kts 206°
2026-05-05 18:10 33.94973 -80.91471 34087 ft 482 kts 206°
2026-05-05 18:11 33.88517 -80.93836 34085 ft 482 kts 206°
2026-05-05 18:11 33.82100 -80.96183 34089 ft 482 kts 206°
2026-05-05 18:12 33.75679 -80.98528 34074 ft 482 kts 206°
2026-05-05 18:12 33.69767 -81.00683 34094 ft 481 kts 206°
2026-05-05 18:13 33.63363 -81.03015 34083 ft 481 kts 206°
2026-05-05 18:13 33.56953 -81.05348 34076 ft 481 kts 206°
2026-05-05 18:14 33.50549 -81.07673 34077 ft 481 kts 207°
2026-05-05 18:14 33.44139 -81.09979 34077 ft 483 kts 204°
2026-05-05 18:14 33.40754 -81.10733 34077 ft 495 kts 194°
2026-05-05 18:15 33.37313 -81.10815 34094 ft 505 kts 186°
2026-05-05 18:15 33.30257 -81.10245 34092 ft 510 kts 182°
2026-05-05 18:16 33.23192 -81.09422 34093 ft 511 kts 182°
2026-05-05 18:16 33.16117 -81.08604 34087 ft 511 kts 182°
2026-05-05 18:17 33.09033 -81.07828 34087 ft 511 kts 182°
2026-05-05 18:17 33.01946 -81.07073 34087 ft 511 kts 182°
2026-05-05 18:18 32.94860 -81.06323 34086 ft 511 kts 182°
2026-05-05 18:18 32.87766 -81.05572 34088 ft 512 kts 183°
2026-05-05 18:19 32.80670 -81.04820 34089 ft 512 kts 183°
2026-05-05 18:19 32.73558 -81.04067 34091 ft 513 kts 183°
2026-05-05 18:20 32.66445 -81.03315 34093 ft 513 kts 183°
2026-05-05 18:20 32.59330 -81.02565 34106 ft 514 kts 183°
2026-05-05 18:21 32.52508 -81.01976 34099 ft 507 kts 189°
2026-05-05 18:21 32.45456 -81.01988 34108 ft 507 kts 189°
2026-05-05 18:22 32.38403 -81.02118 34107 ft 506 kts 190°
2026-05-05 18:22 32.31357 -81.02266 34098 ft 506 kts 190°
2026-05-05 18:23 32.24307 -81.02402 34104 ft 507 kts 190°
2026-05-05 18:23 32.17252 -81.02528 34101 ft 507 kts 190°
2026-05-05 18:24 32.10205 -81.02651 34082 ft 507 kts 190°
2026-05-05 18:24 32.03150 -81.02774 34077 ft 507 kts 190°
2026-05-05 18:25 31.96097 -81.02920 34081 ft 506 kts 191°
2026-05-05 18:25 31.89051 -81.03115 34081 ft 506 kts 191°
2026-05-05 18:26 31.82009 -81.03317 34087 ft 506 kts 191°
2026-05-05 18:26 31.74963 -81.03513 34087 ft 506 kts 191°
2026-05-05 18:27 31.67922 -81.03705 34093 ft 506 kts 191°
2026-05-05 18:27 31.60888 -81.03896 34097 ft 506 kts 191°
2026-05-05 18:28 31.50375 -81.04423 34096 ft 502 kts 193°
2026-05-05 18:28 31.43398 -81.04910 34101 ft 502 kts 193°
2026-05-05 18:29 31.36430 -81.05382 34101 ft 502 kts 193°
2026-05-05 18:29 31.29461 -81.05836 34106 ft 501 kts 193°
2026-05-05 18:30 31.22490 -81.06228 34101 ft 503 kts 191°
2026-05-05 18:30 31.15488 -81.06383 34101 ft 504 kts 190°
2026-05-05 18:31 31.08482 -81.06483 34103 ft 503 kts 190°
2026-05-05 18:31 31.01482 -81.06604 34102 ft 502 kts 190°
2026-05-05 18:32 30.94500 -81.06744 34107 ft 502 kts 190°
2026-05-05 18:32 30.87525 -81.06889 34106 ft 501 kts 190°
2026-05-05 18:33 30.81731 -81.07010 34105 ft 501 kts 190°
2026-05-05 18:33 30.74762 -81.07154 34109 ft 501 kts 190°
2026-05-05 18:34 30.66670 -81.07320 34105 ft 500 kts 190°
2026-05-05 18:34 30.59724 -81.07523 34106 ft 498 kts 192°
2026-05-05 18:35 30.53939 -81.07862 34107 ft 497 kts 192°
2026-05-05 18:35 30.47040 -81.08318 34108 ft 496 kts 192°
2026-05-05 18:36 30.40143 -81.08757 34108 ft 497 kts 192°
2026-05-05 18:36 30.33234 -81.09177 34110 ft 497 kts 192°
2026-05-05 18:37 30.26373 -81.09588 34108 ft 497 kts 192°
2026-05-05 18:37 30.19471 -81.10000 34107 ft 497 kts 192°
2026-05-05 18:38 30.12562 -81.10413 34107 ft 497 kts 192°
2026-05-05 18:38 30.05656 -81.10825 34117 ft 497 kts 191°
2026-05-05 18:39 29.98748 -81.11237 34118 ft 497 kts 191°
2026-05-05 18:39 29.91832 -81.11649 34122 ft 497 kts 191°
2026-05-05 18:40 29.84920 -81.12061 34122 ft 498 kts 191°
2026-05-05 18:40 29.77985 -81.12392 34116 ft 500 kts 189°
2026-05-05 18:41 29.71027 -81.12540 34108 ft 501 kts 189°
2026-05-05 18:41 29.64059 -81.12660 34112 ft 501 kts 189°
2026-05-05 18:42 29.57089 -81.12801 34112 ft 501 kts 189°
2026-05-05 18:42 29.50128 -81.12955 34118 ft 501 kts 189°
2026-05-05 18:43 29.43168 -81.13113 34112 ft 501 kts 189°
2026-05-05 18:43 29.36195 -81.13270 34112 ft 501 kts 189°
2026-05-05 18:44 29.29184 -81.12808 34103 ft 515 kts 173°
2026-05-05 18:44 29.22306 -81.10278 34107 ft 522 kts 165°
2026-05-05 18:45 29.15516 -81.07269 34108 ft 524 kts 163°
2026-05-05 18:45 29.08744 -81.04204 34110 ft 524 kts 163°
2026-05-05 18:46 29.01957 -81.01177 34098 ft 523 kts 163°
2026-05-05 18:46 28.95215 -80.98205 34105 ft 523 kts 163°
2026-05-05 18:47 28.88387 -80.95210 34101 ft 523 kts 163°
2026-05-05 18:47 28.81588 -80.92230 34095 ft 523 kts 163°
2026-05-05 18:48 28.74839 -80.89274 34080 ft 523 kts 163°
2026-05-05 18:48 28.68052 -80.86330 34085 ft 522 kts 165°
2026-05-05 18:49 28.64624 -80.84957 34211 ft 522 kts 166°
2026-05-05 18:49 28.61176 -80.83637 34306 ft 525 kts 167°
2026-05-05 18:49 28.54179 -80.81009 34491 ft 532 kts 167°
2026-05-05 18:50 28.47120 -80.78340 34736 ft 536 kts 166°
2026-05-05 18:50 28.43591 -80.76995 34913 ft 536 kts 166°
2026-05-05 18:50 28.40047 -80.75641 35074 ft 537 kts 166°
2026-05-05 18:51 28.33019 -80.72950 35069 ft 528 kts 166°
2026-05-05 18:51 28.26085 -80.70302 35072 ft 525 kts 166°
2026-05-05 18:52 28.19149 -80.67663 35070 ft 525 kts 166°
2026-05-05 18:52 28.12227 -80.65034 35087 ft 525 kts 166°
2026-05-05 18:53 28.05299 -80.62404 35090 ft 525 kts 166°
2026-05-05 18:53 27.98378 -80.59779 35091 ft 524 kts 166°
2026-05-05 18:54 27.91455 -80.57158 35080 ft 524 kts 166°
2026-05-05 18:54 27.84544 -80.54544 35078 ft 524 kts 166°
2026-05-05 18:55 27.77637 -80.51936 35085 ft 523 kts 167°
2026-05-05 18:55 27.70606 -80.50616 35087 ft 503 kts 189°
2026-05-05 18:56 27.63693 -80.51246 35092 ft 497 kts 194°
2026-05-05 18:56 27.56847 -80.52224 35086 ft 496 kts 195°
2026-05-05 18:57 27.50002 -80.53238 35077 ft 496 kts 195°
2026-05-05 18:57 27.43152 -80.54214 35076 ft 496 kts 195°
2026-05-05 18:58 27.36295 -80.55166 35073 ft 496 kts 195°
2026-05-05 18:58 27.29452 -80.56109 35059 ft 496 kts 195°
2026-05-05 18:59 27.22599 -80.57052 35050 ft 496 kts 195°
2026-05-05 18:59 27.15753 -80.57995 35047 ft 495 kts 194°
2026-05-05 19:00 27.08958 -80.58931 35053 ft 495 kts 195°
2026-05-05 19:00 27.02116 -80.59872 35050 ft 495 kts 194°
2026-05-05 19:01 26.95274 -80.60812 35049 ft 495 kts 194°
2026-05-05 19:01 26.88433 -80.61750 35043 ft 495 kts 194°
2026-05-05 19:02 26.81596 -80.62687 35044 ft 495 kts 194°
2026-05-05 19:02 26.74742 -80.63625 35042 ft 495 kts 194°
2026-05-05 19:03 26.67892 -80.64561 35038 ft 495 kts 194°
2026-05-05 19:03 26.61058 -80.65494 35035 ft 495 kts 194°
2026-05-05 19:04 26.54211 -80.66428 35029 ft 495 kts 194°
2026-05-05 19:04 26.47369 -80.67359 35024 ft 495 kts 194°
2026-05-05 19:05 26.40518 -80.68291 35024 ft 495 kts 194°
2026-05-05 19:05 26.33678 -80.69220 35012 ft 496 kts 194°
2026-05-05 19:06 26.26834 -80.70149 35017 ft 495 kts 194°
2026-05-05 19:06 26.19981 -80.71078 35005 ft 495 kts 194°
2026-05-05 19:07 26.13138 -80.72004 35011 ft 496 kts 193°
2026-05-05 19:07 26.06286 -80.72930 35010 ft 496 kts 193°
2026-05-05 19:08 25.99439 -80.73855 35010 ft 496 kts 193°
2026-05-05 19:08 25.92638 -80.74772 35012 ft 496 kts 193°
2026-05-05 19:09 25.85780 -80.75696 35009 ft 496 kts 193°
2026-05-05 19:09 25.78943 -80.76654 35008 ft 493 kts 197°
2026-05-05 19:10 25.72237 -80.78146 35009 ft 491 kts 198°
2026-05-05 19:10 25.65563 -80.79740 35009 ft 491 kts 199°
2026-05-05 19:11 25.58888 -80.81354 35009 ft 491 kts 199°
2026-05-05 19:11 25.52218 -80.82958 35009 ft 491 kts 199°
2026-05-05 19:12 25.45506 -80.84563 35011 ft 491 kts 199°
2026-05-05 19:12 25.38830 -80.86156 35012 ft 491 kts 198°
2026-05-05 19:13 25.32162 -80.87744 35016 ft 490 kts 198°
2026-05-05 19:13 25.25488 -80.89333 35018 ft 490 kts 198°
2026-05-05 19:14 25.18823 -80.90917 35021 ft 490 kts 198°
2026-05-05 19:14 25.12142 -80.92504 35024 ft 490 kts 198°
2026-05-05 19:15 25.05471 -80.94087 35029 ft 490 kts 198°
2026-05-05 19:15 24.98802 -80.95668 35030 ft 490 kts 198°
2026-05-05 19:16 24.92144 -80.97244 35032 ft 490 kts 198°
2026-05-05 19:16 24.85486 -80.98819 35034 ft 489 kts 198°
2026-05-05 19:17 24.78823 -81.00390 35035 ft 490 kts 197°
2026-05-05 19:17 24.71989 -81.01115 35037 ft 496 kts 188°
2026-05-05 19:18 24.66197 -81.01370 35035 ft 497 kts 187°
2026-05-05 19:18 24.59271 -81.01593 35035 ft 497 kts 186°
2026-05-05 19:19 24.52358 -81.01714 35031 ft 498 kts 184°
2026-05-05 19:19 24.45424 -81.01633 35033 ft 498 kts 184°
2026-05-05 19:20 24.38528 -81.01534 35030 ft 498 kts 184°
2026-05-05 19:20 24.31555 -81.01458 35032 ft 498 kts 184°
2026-05-05 19:21 24.24630 -81.01398 35026 ft 498 kts 184°
2026-05-05 19:21 24.17707 -81.01342 35030 ft 497 kts 184°
2026-05-05 19:22 24.10777 -81.01285 35032 ft 497 kts 184°
2026-05-05 19:22 24.03858 -81.01228 35030 ft 497 kts 184°
2026-05-05 19:23 23.96937 -81.01115 35029 ft 498 kts 182°
2026-05-05 19:23 23.90052 -81.00824 35029 ft 498 kts 181°
2026-05-05 19:24 23.83130 -81.00498 35027 ft 498 kts 181°
2026-05-05 19:24 23.76199 -81.00189 35027 ft 498 kts 181°
2026-05-05 19:25 23.69279 -80.99895 35028 ft 498 kts 181°
2026-05-05 19:25 23.62350 -80.99604 35028 ft 498 kts 181°
2026-05-05 19:26 23.55433 -80.99314 35027 ft 498 kts 181°
2026-05-05 19:26 23.48510 -80.99023 35031 ft 497 kts 181°
2026-05-05 19:27 23.41594 -80.98732 35026 ft 497 kts 181°
2026-05-05 19:27 23.34678 -80.98442 35026 ft 497 kts 181°
2026-05-05 19:28 23.27764 -80.98152 35032 ft 497 kts 181°
2026-05-05 19:28 23.20845 -80.97861 35025 ft 497 kts 181°
2026-05-05 19:29 23.13921 -80.97568 35029 ft 497 kts 181°
2026-05-05 19:29 23.07010 -80.97276 35023 ft 497 kts 181°
2026-05-05 19:30 23.00215 -80.97972 35019 ft 485 kts 200°
2026-05-05 19:30 22.93824 -81.00243 35023 ft 482 kts 205°
2026-05-05 19:31 22.87538 -81.02785 35017 ft 482 kts 206°
2026-05-05 19:31 22.81264 -81.05355 35020 ft 482 kts 205°
2026-05-05 19:32 22.74968 -81.07897 35015 ft 483 kts 205°
2026-05-05 19:32 22.68669 -81.10418 35011 ft 483 kts 205°
2026-05-05 19:33 22.62368 -81.12931 35011 ft 483 kts 205°
2026-05-05 19:33 22.56057 -81.15447 35008 ft 483 kts 205°
2026-05-05 19:34 22.49752 -81.17959 35012 ft 483 kts 205°
2026-05-05 19:35 22.40278 -81.21729 35009 ft 483 kts 205°
2026-05-05 19:35 22.33967 -81.24238 35010 ft 484 kts 205°
2026-05-05 19:36 22.27648 -81.26748 35012 ft 484 kts 205°
2026-05-05 19:36 22.21323 -81.29257 35010 ft 484 kts 205°
2026-05-05 19:37 22.15008 -81.31760 35010 ft 484 kts 205°
2026-05-05 19:37 22.08681 -81.34266 35012 ft 484 kts 204°
2026-05-05 19:38 22.02362 -81.36766 35011 ft 484 kts 204°
2026-05-05 19:38 21.96038 -81.39266 35016 ft 484 kts 204°
2026-05-05 19:39 21.89712 -81.41763 35014 ft 484 kts 204°
2026-05-05 19:39 21.83379 -81.44261 35014 ft 484 kts 204°
2026-05-05 19:40 21.77052 -81.46755 35016 ft 484 kts 204°
2026-05-05 19:40 21.70773 -81.49227 35017 ft 484 kts 204°
2026-05-05 19:41 21.64444 -81.51717 35017 ft 484 kts 204°
2026-05-05 19:41 21.58311 -81.54602 35018 ft 480 kts 212°
2026-05-05 19:42 21.52427 -81.57988 35017 ft 479 kts 213°
2026-05-05 19:42 21.46597 -81.61447 35013 ft 479 kts 213°
2026-05-05 19:43 21.40765 -81.64909 35013 ft 479 kts 213°
2026-05-05 19:43 21.34925 -81.68358 35014 ft 479 kts 213°
2026-05-05 19:44 21.29077 -81.71800 35008 ft 479 kts 213°
2026-05-05 19:44 21.23230 -81.75238 35013 ft 479 kts 213°
2026-05-05 19:45 21.17384 -81.78671 35014 ft 479 kts 213°
2026-05-05 19:45 21.11536 -81.82104 35012 ft 479 kts 213°
2026-05-05 19:46 21.05680 -81.85538 35005 ft 479 kts 213°
2026-05-05 19:46 20.99829 -81.88966 35009 ft 479 kts 213°
2026-05-05 19:47 20.93976 -81.92392 35005 ft 480 kts 213°
2026-05-05 19:47 20.88122 -81.95816 35000 ft 480 kts 212°
2026-05-05 19:48 20.82302 -81.99217 35006 ft 480 kts 212°
2026-05-05 19:48 20.76408 -82.02658 35009 ft 480 kts 212°
2026-05-05 19:49 20.70582 -82.06056 35011 ft 480 kts 212°
2026-05-05 19:49 20.64719 -82.09473 35009 ft 480 kts 212°
2026-05-05 19:50 20.58856 -82.12887 35007 ft 480 kts 212°
2026-05-05 19:50 20.52992 -82.16298 35006 ft 480 kts 212°
2026-05-05 19:51 20.47124 -82.19709 35008 ft 480 kts 212°
2026-05-05 19:51 20.41252 -82.23119 35003 ft 480 kts 212°
2026-05-05 19:52 20.35377 -82.26527 35011 ft 480 kts 212°
2026-05-05 19:52 20.29513 -82.29927 35007 ft 480 kts 212°
2026-05-05 19:53 20.23641 -82.33328 35008 ft 480 kts 212°
2026-05-05 19:53 20.17778 -82.36721 35006 ft 480 kts 212°
2026-05-05 19:54 20.11898 -82.40107 35002 ft 481 kts 210°
2026-05-05 19:54 20.05538 -82.42412 35006 ft 486 kts 196°
2026-05-05 19:55 19.98942 -82.44003 35006 ft 486 kts 194°
2026-05-05 19:55 19.92311 -82.45469 35004 ft 486 kts 194°
2026-05-05 19:56 19.85688 -82.46939 35003 ft 486 kts 194°
2026-05-05 19:56 19.79072 -82.48429 35000 ft 486 kts 194°
2026-05-05 19:57 19.72460 -82.49928 35001 ft 486 kts 194°
2026-05-05 19:57 19.65843 -82.51428 35001 ft 485 kts 194°
2026-05-05 19:58 19.59236 -82.52923 35000 ft 485 kts 194°
2026-05-05 19:58 19.53749 -82.54164 34999 ft 485 kts 194°
2026-05-05 19:59 19.47146 -82.55655 35000 ft 485 kts 194°
2026-05-05 19:59 19.40544 -82.57145 34999 ft 485 kts 194°
2026-05-05 20:00 19.33950 -82.58632 34997 ft 485 kts 194°
2026-05-05 20:00 19.27349 -82.60120 34993 ft 484 kts 193°
2026-05-05 20:01 19.20763 -82.61603 34994 ft 484 kts 193°
2026-05-05 20:01 19.14183 -82.63083 34992 ft 484 kts 193°
2026-05-05 20:02 19.07595 -82.64564 34991 ft 484 kts 193°
2026-05-05 20:02 19.01017 -82.66041 34998 ft 483 kts 193°
2026-05-05 20:03 18.94429 -82.67519 34993 ft 483 kts 193°
2026-05-05 20:03 18.87857 -82.68993 34984 ft 483 kts 193°
2026-05-05 20:04 18.81288 -82.70465 34989 ft 482 kts 193°
2026-05-05 20:04 18.74727 -82.71934 34985 ft 482 kts 193°
2026-05-05 20:05 18.68162 -82.73402 34986 ft 482 kts 193°
2026-05-05 20:05 18.61601 -82.74868 34985 ft 482 kts 193°
2026-05-05 20:06 18.55037 -82.76334 34990 ft 482 kts 193°
2026-05-05 20:06 18.48483 -82.77797 34982 ft 482 kts 193°
2026-05-05 20:07 18.41915 -82.79262 34982 ft 482 kts 193°
2026-05-05 20:07 18.35363 -82.80721 34982 ft 482 kts 193°
2026-05-05 20:08 18.28803 -82.82182 34979 ft 482 kts 193°
2026-05-05 20:08 18.22245 -82.83641 34975 ft 482 kts 193°
2026-05-05 20:09 18.16760 -82.84860 34983 ft 481 kts 193°
2026-05-05 20:09 18.10208 -82.86315 34978 ft 481 kts 193°
2026-05-05 20:10 18.03653 -82.87770 34977 ft 481 kts 193°
2026-05-05 20:10 17.97100 -82.89224 34977 ft 481 kts 193°
2026-05-05 20:11 17.90545 -82.90677 34976 ft 481 kts 193°
2026-05-05 20:11 17.83993 -82.92128 34974 ft 481 kts 193°
2026-05-05 20:12 17.77441 -82.93578 34971 ft 481 kts 193°
2026-05-05 20:12 17.70891 -82.95026 34973 ft 481 kts 193°
2026-05-05 20:13 17.64346 -82.96473 34972 ft 481 kts 193°
2026-05-05 20:13 17.57857 -82.97803 34964 ft 469 kts 192°
2026-05-05 20:14 17.51529 -82.99087 34959 ft 456 kts 193°
2026-05-05 20:14 17.45383 -83.00407 34967 ft 446 kts 193°
2026-05-05 20:15 17.39370 -83.01720 34963 ft 436 kts 193°
2026-05-05 20:15 17.33486 -83.03015 34962 ft 428 kts 193°
2026-05-05 20:16 17.27723 -83.04282 34958 ft 418 kts 193°
2026-05-05 20:16 17.21985 -83.05646 34970 ft 429 kts 195°
2026-05-05 20:17 17.16082 -83.07068 34968 ft 441 kts 194°
2026-05-05 20:17 17.10004 -83.08447 34969 ft 453 kts 193°
2026-05-05 20:18 17.03765 -83.09818 34966 ft 464 kts 193°
2026-05-05 20:18 16.97380 -83.11211 34964 ft 474 kts 193°
2026-05-05 20:19 16.90864 -83.12636 34963 ft 483 kts 193°
2026-05-05 20:19 16.84235 -83.14087 34959 ft 491 kts 193°
2026-05-05 20:20 16.77506 -83.15559 34957 ft 498 kts 193°
2026-05-05 20:20 16.70686 -83.17051 34956 ft 503 kts 193°
2026-05-05 20:21 16.63790 -83.18558 34958 ft 508 kts 193°
2026-05-05 20:21 16.56836 -83.20076 34956 ft 512 kts 193°
2026-05-05 20:22 16.49895 -83.21590 34940 ft 498 kts 193°
2026-05-05 20:22 16.46559 -83.22316 34943 ft 483 kts 193°
2026-05-05 20:22 16.43296 -83.23026 34946 ft 477 kts 193°
2026-05-05 20:23 16.36802 -83.24442 34950 ft 477 kts 193°
2026-05-05 20:23 16.30313 -83.25857 34951 ft 477 kts 193°
2026-05-05 20:24 16.23822 -83.27270 34950 ft 476 kts 193°
2026-05-05 20:24 16.17335 -83.28681 34949 ft 476 kts 193°
2026-05-05 20:25 16.10846 -83.30092 34951 ft 476 kts 193°
2026-05-05 20:25 16.04364 -83.31494 34947 ft 476 kts 193°
2026-05-05 20:26 15.97882 -83.32862 34944 ft 475 kts 192°
2026-05-05 20:26 15.91400 -83.34227 34943 ft 475 kts 192°
2026-05-05 20:27 15.84928 -83.35591 34940 ft 475 kts 192°
2026-05-05 20:27 15.78456 -83.36953 34944 ft 474 kts 192°
2026-05-05 20:28 15.71986 -83.38315 34944 ft 474 kts 192°
2026-05-05 20:28 15.65526 -83.39673 34942 ft 474 kts 192°
2026-05-05 20:29 15.59068 -83.41030 34938 ft 473 kts 192°
2026-05-05 20:29 15.52612 -83.42386 34934 ft 473 kts 192°
2026-05-05 20:30 15.46156 -83.43741 34936 ft 473 kts 192°
2026-05-05 20:30 15.40182 -83.44994 34944 ft 473 kts 192°
2026-05-05 20:31 15.33736 -83.46345 34927 ft 472 kts 192°
2026-05-05 20:31 15.27291 -83.47695 34923 ft 472 kts 192°
2026-05-05 20:32 15.20857 -83.49043 34922 ft 472 kts 192°
2026-05-05 20:32 15.14412 -83.50390 34917 ft 472 kts 192°
2026-05-05 20:33 15.08006 -83.51730 34914 ft 472 kts 192°
2026-05-05 20:33 15.01569 -83.53075 34909 ft 472 kts 192°
2026-05-05 20:34 14.95129 -83.54420 34908 ft 473 kts 192°
2026-05-05 20:34 14.88672 -83.55769 34908 ft 473 kts 192°
2026-05-05 20:35 14.82219 -83.57115 34905 ft 473 kts 192°
2026-05-05 20:35 14.75767 -83.58459 34908 ft 473 kts 192°
2026-05-05 20:36 14.69310 -83.59804 34902 ft 473 kts 192°
2026-05-05 20:36 14.62853 -83.61149 34902 ft 473 kts 192°
2026-05-05 20:37 14.56398 -83.62491 34902 ft 473 kts 192°
2026-05-05 20:37 14.49941 -83.63834 34900 ft 473 kts 192°
2026-05-05 20:38 14.43546 -83.65164 34907 ft 473 kts 192°
2026-05-05 20:38 14.37084 -83.66508 34899 ft 474 kts 192°
2026-05-05 20:39 14.30622 -83.67849 34898 ft 474 kts 192°
2026-05-05 20:39 14.25253 -83.68962 34897 ft 474 kts 192°
2026-05-05 20:40 14.18789 -83.70302 34899 ft 474 kts 192°
2026-05-05 20:40 14.12330 -83.71640 34897 ft 474 kts 192°
2026-05-05 20:41 14.05865 -83.72979 34896 ft 474 kts 192°
2026-05-05 20:41 13.99406 -83.74317 34892 ft 474 kts 192°
2026-05-05 20:42 13.92941 -83.75654 34893 ft 474 kts 192°
2026-05-05 20:42 13.86487 -83.76988 34888 ft 474 kts 192°
2026-05-05 20:43 13.80011 -83.78326 34885 ft 474 kts 192°
2026-05-05 20:43 13.73552 -83.79661 34888 ft 474 kts 192°
2026-05-05 20:44 13.67082 -83.80997 34883 ft 474 kts 192°
2026-05-05 20:44 13.60611 -83.82331 34884 ft 474 kts 192°
2026-05-05 20:45 13.50924 -83.84327 34885 ft 473 kts 192°
2026-05-05 20:45 13.44468 -83.85657 34884 ft 473 kts 192°
2026-05-05 20:46 13.38026 -83.86983 34879 ft 472 kts 192°
2026-05-05 20:46 13.31632 -83.88299 34886 ft 471 kts 192°
2026-05-05 20:47 13.25213 -83.89621 34884 ft 471 kts 192°
2026-05-05 20:47 13.18789 -83.90941 34884 ft 470 kts 192°
2026-05-05 20:48 13.12376 -83.92260 34883 ft 470 kts 192°
2026-05-05 20:48 13.05975 -83.93573 34880 ft 469 kts 192°
2026-05-05 20:49 12.99573 -83.94886 34880 ft 469 kts 192°
2026-05-05 20:49 12.93184 -83.96197 34881 ft 468 kts 192°
2026-05-05 20:50 12.86801 -83.97506 34880 ft 467 kts 192°
2026-05-05 20:50 12.80429 -83.98812 34881 ft 467 kts 192°
2026-05-05 20:51 12.74063 -84.00116 34880 ft 466 kts 192°
2026-05-05 20:51 12.67705 -84.01418 34880 ft 466 kts 192°
2026-05-05 20:52 12.61389 -84.02710 34882 ft 465 kts 192°
2026-05-05 20:52 12.55046 -84.04007 34878 ft 465 kts 192°
2026-05-05 20:53 12.48705 -84.05303 34878 ft 464 kts 192°
2026-05-05 20:53 12.42380 -84.06595 34878 ft 464 kts 192°
2026-05-05 20:54 12.36052 -84.07888 34873 ft 464 kts 192°
2026-05-05 20:54 12.29725 -84.09180 34874 ft 463 kts 192°
2026-05-05 20:55 12.23401 -84.10469 34877 ft 463 kts 192°
2026-05-05 20:55 12.17079 -84.11758 34878 ft 463 kts 192°
2026-05-05 20:56 12.10769 -84.13044 34881 ft 462 kts 192°
2026-05-05 20:56 12.04463 -84.14329 34874 ft 462 kts 192°
2026-05-05 20:57 11.98153 -84.15613 34879 ft 462 kts 192°
2026-05-05 20:57 11.91846 -84.16897 34881 ft 462 kts 192°
2026-05-05 20:58 11.85536 -84.18180 34876 ft 462 kts 192°
2026-05-05 20:58 11.79224 -84.19464 34884 ft 463 kts 192°
2026-05-05 20:59 11.72948 -84.20739 34879 ft 463 kts 192°
2026-05-05 20:59 11.66591 -84.22030 34883 ft 463 kts 192°
2026-05-05 21:00 11.63568 -84.22911 34936 ft 453 kts 207°
2026-05-05 21:00 11.60594 -84.24043 34876 ft 461 kts 193°
2026-05-05 21:00 11.54157 -84.24946 34890 ft 473 kts 188°
2026-05-05 21:01 11.47584 -84.26008 34884 ft 482 kts 190°
2026-05-05 21:01 11.41108 -84.27237 34880 ft 467 kts 191°
2026-05-05 21:02 11.34743 -84.28500 34884 ft 465 kts 192°
2026-05-05 21:02 11.28335 -84.29791 34886 ft 473 kts 192°
2026-05-05 21:03 11.21872 -84.31097 34880 ft 474 kts 192°
2026-05-05 21:03 11.15402 -84.32406 34880 ft 474 kts 192°
2026-05-05 21:04 11.08920 -84.33718 34878 ft 474 kts 191°
2026-05-05 21:04 11.02479 -84.35021 34877 ft 469 kts 192°
2026-05-05 21:05 10.99277 -84.35668 34622 ft 470 kts 191°
2026-05-05 21:05 10.96054 -84.36319 33919 ft 473 kts 191°
2026-05-05 21:05 10.92828 -84.36971 32792 ft 472 kts 191°
2026-05-05 21:05 10.89623 -84.37733 31310 ft 474 kts 196°
2026-05-05 21:06 10.86481 -84.38735 30320 ft 472 kts 198°
2026-05-05 21:06 10.83365 -84.39774 29730 ft 469 kts 198°
2026-05-05 21:06 10.80272 -84.40807 29054 ft 467 kts 198°
2026-05-05 21:06 10.77196 -84.41833 28425 ft 464 kts 198°
2026-05-05 21:07 10.74143 -84.42850 27835 ft 460 kts 197°
2026-05-05 21:07 10.71112 -84.43858 27251 ft 456 kts 197°
2026-05-05 21:07 10.68112 -84.44857 26645 ft 454 kts 197°
2026-05-05 21:07 10.65120 -84.45852 26046 ft 451 kts 197°
2026-05-05 21:08 10.62146 -84.46841 25483 ft 448 kts 197°
2026-05-05 21:08 10.59205 -84.47819 24917 ft 441 kts 197°
2026-05-05 21:08 10.56320 -84.48778 24302 ft 433 kts 197°
2026-05-05 21:08 10.53475 -84.49724 23721 ft 426 kts 197°
2026-05-05 21:09 10.50683 -84.50652 23081 ft 420 kts 197°
2026-05-05 21:09 10.47936 -84.51565 22482 ft 412 kts 197°
2026-05-05 21:09 10.45238 -84.52462 21919 ft 404 kts 197°
2026-05-05 21:09 10.42592 -84.53339 21344 ft 397 kts 197°
2026-05-05 21:10 10.39990 -84.54203 20795 ft 391 kts 197°
2026-05-05 21:10 10.37441 -84.55047 20259 ft 389 kts 197°
2026-05-05 21:10 10.34874 -84.55899 19716 ft 388 kts 197°
2026-05-05 21:10 10.32310 -84.56749 19161 ft 387 kts 197°
2026-05-05 21:11 10.29758 -84.57594 18601 ft 385 kts 197°
2026-05-05 21:11 10.27213 -84.58438 18032 ft 384 kts 197°
2026-05-05 21:11 10.24678 -84.59277 17479 ft 381 kts 197°
2026-05-05 21:11 10.22208 -84.60095 17354 ft 366 kts 197°
2026-05-05 21:12 10.19837 -84.60882 17231 ft 352 kts 197°
2026-05-05 21:12 10.17548 -84.61636 16998 ft 342 kts 195°
2026-05-05 21:12 10.15225 -84.62022 16499 ft 337 kts 176°
2026-05-05 21:12 10.12976 -84.61491 16031 ft 331 kts 154°
2026-05-05 21:13 10.10965 -84.60382 15659 ft 327 kts 147°
2026-05-05 21:13 10.08991 -84.59166 15445 ft 339 kts 147°
2026-05-05 21:13 10.06942 -84.57902 15226 ft 348 kts 147°
2026-05-05 21:13 10.04877 -84.56630 14934 ft 344 kts 147°
2026-05-05 21:14 10.02866 -84.55406 14470 ft 330 kts 147°
2026-05-05 21:14 10.00937 -84.54239 14121 ft 313 kts 148°
2026-05-05 21:14 9.99116 -84.53139 13846 ft 296 kts 148°
2026-05-05 21:14 9.97398 -84.52099 13578 ft 280 kts 147°
2026-05-05 21:15 9.95765 -84.51109 13221 ft 267 kts 147°
2026-05-05 21:15 9.94191 -84.50155 12659 ft 262 kts 148°
2026-05-05 21:15 9.92625 -84.49206 12021 ft 262 kts 147°
2026-05-05 21:15 9.91166 -84.48135 11414 ft 257 kts 131°
2026-05-05 21:16 9.90329 -84.46577 10810 ft 252 kts 100°
2026-05-05 21:16 9.90421 -84.44839 10243 ft 248 kts 75°
2026-05-05 21:16 9.90985 -84.43189 9683 ft 246 kts 69°
2026-05-05 21:16 9.91604 -84.41593 9142 ft 241 kts 69°
2026-05-05 21:17 9.92205 -84.40040 8726 ft 230 kts 69°
2026-05-05 21:17 9.92779 -84.38589 8530 ft 212 kts 68°
2026-05-05 21:17 9.93306 -84.37237 7961 ft 211 kts 70°
2026-05-05 21:17 9.93809 -84.35777 6981 ft 224 kts 71°
2026-05-05 21:18 9.94294 -84.34371 6947 ft 185 kts 65°
2026-05-05 21:18 9.95056 -84.33463 6980 ft 172 kts 30°
2026-05-05 21:18 9.96248 -84.33398 7077 ft 179 kts 334°
2026-05-05 21:18 9.97021 -84.34385 7174 ft 190 kts 285°
2026-05-05 21:19 9.96815 -84.35690 7253 ft 198 kts 235°
2026-05-05 21:19 9.95951 -84.36772 7515 ft 195 kts 236°
2026-05-05 21:19 9.95373 -84.38054 7580 ft 204 kts 252°
2026-05-05 21:19 9.94938 -84.39365 7981 ft 192 kts 249°
2026-05-05 21:20 9.94402 -84.40630 8038 ft 205 kts 242°
2026-05-05 21:20 9.93674 -84.41895 7826 ft 209 kts 237°
2026-05-05 21:20 9.92874 -84.43110 7775 ft 207 kts 234°
2026-05-05 21:20 9.92039 -84.44273 7904 ft 203 kts 232°
2026-05-05 21:21 9.91132 -84.45408 7805 ft 211 kts 221°
2026-05-05 21:21 9.89745 -84.45947 7402 ft 228 kts 176°
2026-05-05 21:21 9.88371 -84.45260 7044 ft 223 kts 124°
2026-05-05 21:21 9.88069 -84.43828 6810 ft 202 kts 77°
2026-05-05 21:22 9.88805 -84.42679 6407 ft 197 kts 40°
2026-05-05 21:22 9.89763 -84.41774 6236 ft 178 kts 46°
2026-05-05 21:22 9.90589 -84.40947 6181 ft 157 kts 41°
2026-05-05 21:22 9.91447 -84.40360 6172 ft 143 kts 27°
2026-05-05 21:23 9.92260 -84.39812 6213 ft 141 kts 45°
2026-05-05 21:23 9.92744 -84.38956 6224 ft 142 kts 71°
2026-05-05 21:23 9.93020 -84.37988 6154 ft 143 kts 71°
2026-05-05 21:23 9.93370 -84.37043 5978 ft 143 kts 68°
2026-05-05 21:24 9.93724 -84.36102 5772 ft 142 kts 68°
2026-05-05 21:24 9.94072 -84.35159 5579 ft 143 kts 68°
2026-05-05 21:24 9.94424 -84.34213 5426 ft 145 kts 67°
2026-05-05 21:24 9.94789 -84.33238 5230 ft 151 kts 68°
2026-05-05 21:25 9.95167 -84.32217 5033 ft 158 kts 69°
2026-05-05 21:25 9.95556 -84.31174 4823 ft 156 kts 69°
2026-05-05 21:25 9.95931 -84.30167 4617 ft 148 kts 69°
2026-05-05 21:25 9.96283 -84.29219 4436 ft 141 kts 68°
2026-05-05 21:26 9.96629 -84.28290 4261 ft 141 kts 68°
2026-05-05 21:26 9.96978 -84.27354 4087 ft 142 kts 68°
2026-05-05 21:26 9.97331 -84.26407 3918 ft 144 kts 69°
2026-05-05 21:26 9.97685 -84.25455 3724 ft 145 kts 69°
2026-05-05 21:27 9.98043 -84.24495 3515 ft 146 kts 69°
2026-05-05 21:27 9.98400 -84.23535 3305 ft 145 kts 69°
2026-05-05 21:27 9.98752 -84.22588 3099 ft 143 kts 69°
2026-05-05 21:27 9.99101 -84.21653 2978 ft 136 kts 69°
2026-05-05 21:28 9.99354 -84.20969 3006 ft 62 kts 71°
2026-05-05 21:28 9.99390 -84.20764 3015 ft 10 kts 88°
2026-05-05 21:28 9.99389 -84.20737 3016 ft 2 kts 93°
2026-05-05 21:28 9.99383 -84.20705 3016 ft 0 kts 113°
2026-05-05 21:29 9.99423 -84.20647 3023 ft 25 kts 47°
2026-05-05 21:29 9.99504 -84.20545 3028 ft 13 kts 65°
2026-05-05 21:29 9.99552 -84.20451 3028 ft 20 kts 22°
2026-05-05 21:29 9.99605 -84.20443 3032 ft 12 kts 360°
2026-05-05 21:30 9.99638 -84.20440 3032 ft 6 kts
2026-05-05 21:30 9.99642 -84.20439 3031 ft 0 kts
2026-05-05 21:30 9.99649 -84.20438 3030 ft 0 kts 12°
2026-05-05 21:30 9.99659 -84.20441 3030 ft 0 kts 346°
2026-05-05 21:31 9.99662 -84.20441 3030 ft 4 kts 347°
2026-05-05 21:31 9.99675 -84.20443 3029 ft 0 kts 351°
2026-05-05 21:31 9.99685 -84.20446 3029 ft 5 kts 347°
2026-05-05 21:31 9.99704 -84.20451 3029 ft 6 kts 345°
2026-05-05 21:32 9.99707 -84.20452 3029 ft 0 kts 342°